Home   Weather   Dinslaken   Past weeks

Flag for Germany Past Weather in Dinslaken, North Rhine-Westphalia, Germany — Yesterday and Last 2 Weeks

50 °F

Passing clouds.

Feels Like: 47 °F
Forecast: 50 / 57 °F
Wind: 8 mph from South

Location: Duesseldorf

Current Time: Oct 27, 2016 at 4:59:47 AM

Latest Report: Oct 27, 2016 at 4:20 AM

Visibility: 4 mi

Pressure: 30.45 "Hg

Humidity: 88%

Dew Point: 46 °F

Location of DinslakenLocation

Past Weather in Dinslaken — Graph


Dinslaken Temperature Yesterday

Maximum temperature yesterday: 55 °F (at 1:20 PM)
Minimum temperature yesterday: 48 °F (at 12:20 AM)
Average temperature yesterday: 50 °F

High & Low Weather Summary for the Past Weeks

High66 °F (Oct 16, 2:20 PM)100% (Oct 12, 3:20 AM)30.45 "Hg (Oct 12, 3:20 AM)
Low32 °F (Oct 23, 6:20 AM)52% (Oct 16, 2:20 PM)29.65 "Hg (Oct 15, 1:20 AM)
Average49 °F88%30.02 "Hg
* Reported Oct 12 3:20 AM — Oct 27 3:50 AM, Dinslaken, Weather by CustomWeather, © 2016

Note: Actual official high and low records may vary slightly from our data, if they occured in-between our weather recording intervals... More about our weather records


Dinslaken Weather History for the Previous 24 Hours

Scroll right to see more
Time TempWeatherWind HumidityBarometerVisibility
3:50 AM
Thu, Oct 27
50 °FPassing clouds.7 mph88%30.45 "Hg4 mi
3:20 AM50 °FPassing clouds.8 mph88%30.45 "Hg4 mi
2:50 AM50 °FPassing clouds.6 mph88%30.45 "Hg4 mi
2:20 AM50 °FPassing clouds.6 mph88%30.45 "Hg4 mi
1:50 AM50 °FPassing clouds.8 mph88%30.42 "Hg4 mi
1:20 AM50 °FPassing clouds.7 mph88%30.45 "Hg4 mi
12:20 AM50 °FPartly cloudy.5 mph88%30.45 "Hg4 mi
11:50 PM
Wed, Oct 26
48 °FPassing clouds.6 mph87%30.45 "Hg4 mi
11:20 PM48 °FPassing clouds.6 mph87%30.45 "Hg4 mi
10:50 PM50 °FPassing clouds.5 mph88%30.45 "Hg4 mi
10:20 PM50 °FPassing clouds.3 mph88%30.45 "Hg4 mi
9:50 PM50 °FPassing clouds.3 mph88%30.42 "Hg4 mi
9:20 PM48 °FPassing clouds.5 mph94%30.42 "Hg4 mi
8:50 PM48 °FPassing clouds.6 mph87%30.42 "Hg4 mi
8:20 PM50 °FPassing clouds.6 mph88%30.42 "Hg4 mi
7:50 PM50 °FPassing clouds.6 mph88%30.39 "Hg4 mi
7:20 PM50 °FPassing clouds.6 mph88%30.39 "Hg4 mi
6:50 PM50 °FPassing clouds.6 mph82%30.39 "Hg4 mi
6:20 PM50 °FClear.5 mph82%30.39 "Hg4 mi
5:50 PM52 °FClear.5 mph77%30.39 "Hg5 mi
5:20 PM52 °FClear.3 mph77%30.39 "Hg5 mi
4:50 PM54 °FClear.5 mph67%30.39 "Hg5 mi
4:20 PM54 °FPartly sunny.6 mph67%30.39 "Hg6 mi
3:50 PM54 °FBroken clouds.8 mph72%30.39 "Hg5 mi
3:20 PM54 °FBroken clouds.7 mph72%30.39 "Hg5 mi
2:50 PM54 °FBroken clouds.7 mph72%30.39 "Hg5 mi
2:20 PM54 °FBroken clouds.7 mph72%30.39 "Hg5 mi
1:50 PM54 °FPartly sunny.7 mph72%30.39 "Hg6 mi
1:20 PM55 °FBroken clouds.3 mph67%30.39 "Hg6 mi
12:50 PM52 °FBroken clouds.5 mph77%30.39 "Hg6 mi
12:20 PM52 °FBroken clouds.3 mph72%30.39 "Hg6 mi
11:50 AM52 °FScattered clouds.3 mph82%30.39 "Hg5 mi
11:20 AM52 °FPartly sunny.3 mph77%30.39 "Hg5 mi
10:50 AM50 °FPartly sunny.2 mph88%30.36 "Hg5 mi
10:20 AM50 °FPartly sunny.2 mph88%30.36 "Hg5 mi
9:50 AM48 °FPartly sunny.2 mph94%30.36 "Hg5 mi
9:20 AM48 °FPartly sunny.1 mph94%30.36 "Hg5 mi
8:50 AM48 °FPartly sunny.2 mph94%30.36 "Hg5 mi
8:20 AM48 °FPartly sunny.2 mph94%30.36 "Hg5 mi
7:50 AM48 °FPassing clouds.1 mph100%30.36 "Hg6 mi
7:20 AM48 °FOvercast.2 mph100%30.36 "HgN/A
6:50 AM48 °FOvercast.2 mph100%30.33 "HgN/A
6:20 AM48 °FPassing clouds.1 mph100%30.33 "HgN/A
5:50 AM48 °FPassing clouds.2 mph100%30.33 "HgN/A
5:20 AM48 °FPassing clouds.2 mph94%30.33 "HgN/A
4:50 AM48 °FPartly cloudy.2 mph100%30.33 "Hg6 mi
4:20 AM48 °FPartly cloudy.1 mph100%30.33 "Hg6 mi
Weather by CustomWeather, © 2016

See weather overviewHow to use our weather pages